,,Stat6,,Stat2,,Stat8,,Stat9,,Stat10,,Wind1,,Wind1,
time,status,PA1M_AVG,status,PR1M_SUM,status,RH1M_AVG,status,SR1M_AVG,status,TA1M_AVG,status,W1dAve1m,status,W1sAve1m,
2005-10-05, 00:00:01,VALID,919.303,VALID,0,VALID,100,VALID,0,VALID,18.4625,VALID,147,VALID,1.10865,
2005-10-05, 00:01:01,VALID,919.286,VALID,0,VALID,100,VALID,0,VALID,18.4632,VALID,145,VALID,1.19258,
2005-10-05, 00:02:00,VALID,919.289,VALID,0,VALID,100,VALID,0,VALID,18.4629,VALID,133,VALID,1.36791,
2005-10-05, 00:03:00,VALID,919.276,VALID,0,VALID,100,VALID,0,VALID,18.4627,VALID,140,VALID,1.07773,
2005-10-05, 00:04:00,VALID,919.267,VALID,0,VALID,100,VALID,0.0169808,VALID,18.4629,VALID,141,VALID,1.11919,
2005-10-05, 00:05:00,VALID,919.251,VALID,0,VALID,100,VALID,0,VALID,18.4595,VALID,140,VALID,1.40383,
2005-10-05, 00:06:00,VALID,919.25,VALID,0,VALID,100,VALID,0.0169808,VALID,18.4726,VALID,135,VALID,0.858073,
2005-10-05, 00:07:00,VALID,919.234,VALID,0,VALID,100,VALID,0,VALID,18.4689,VALID,133,VALID,1.10882,
2005-10-05, 00:08:01,VALID,919.231,VALID,0,VALID,100,VALID,0.0169808,VALID,18.4664,VALID,139,VALID,1.15389,
2005-10-05, 00:09:00,VALID,919.214,VALID,0,VALID,100,VALID,0,VALID,18.4426,VALID,135,VALID,0.964753,
2005-10-05, 00:10:00,VALID,919.203,VALID,0,VALID,100,VALID,0,VALID,18.4431,VALID,141,VALID,1.09738,
2005-10-05, 00:11:00,VALID,919.192,VALID,0,VALID,100,VALID,0.0339617,VALID,18.4399,VALID,126,VALID,0.842115,
2005-10-05, 00:12:00,VALID,919.177,VALID,0,VALID,100,VALID,0,VALID,18.4498,VALID,143,VALID,0.850836,
2005-10-05, 00:13:01,VALID,919.187,VALID,0,VALID,100,VALID,0,VALID,18.453,VALID,136,VALID,0.918501,
2005-10-05, 00:14:00,VALID,919.187,VALID,0,VALID,100,VALID,0.0339617,VALID,18.4528,VALID,127,VALID,0.953311,
2005-10-05, 00:15:00,VALID,919.189,VALID,0,VALID,100,VALID,0.0169808,VALID,18.4625,VALID,130,VALID,0.728365,
2005-10-05, 00:16:00,VALID,919.189,VALID,0,VALID,100,VALID,0.0339617,VALID,18.4692,VALID,134,VALID,0.610137,
2005-10-05, 00:17:01,VALID,919.196,VALID,0,VALID,100,VALID,-0.0679233,VALID,18.46,VALID,133,VALID,0.802144,
2005-10-05, 00:18:01,VALID,919.204,VALID,0,VALID,100,VALID,-0.0509425,VALID,18.474,VALID,119,VALID,0.442835,
2005-10-05, 00:19:01,VALID,919.2,VALID,0,VALID,100,VALID,-0.0849042,VALID,18.4708,VALID,119,VALID,0.412326,
2005-10-05, 00:20:00,VALID,919.195,VALID,0,VALID,100,VALID,-0.0509425,VALID,18.4574,VALID,98,VALID,0.598323,
2005-10-05, 00:21:00,VALID,919.199,VALID,0,VALID,100,VALID,-0.0509425,VALID,18.4606,VALID,113,VALID,0.841463,
2005-10-05, 00:22:00,VALID,919.21,VALID,0,VALID,100,VALID,-0.0679233,VALID,18.4475,VALID,105,VALID,0.904762,
2005-10-05, 00:23:00,VALID,919.194,VALID,0,VALID,100,VALID,-0.0509425,VALID,18.4443,VALID,114,VALID,0.657584,
2005-10-05, 00:24:00,VALID,919.182,VALID,0,VALID,100,VALID,-0.0679233,VALID,18.4512,VALID,120,VALID,0.861192,
2005-10-05, 00:25:01,VALID,919.162,VALID,0,VALID,100,VALID,-0.0679233,VALID,18.4549,VALID,118,VALID,0.680876,
2005-10-05, 00:26:00,VALID,919.15,VALID,0,VALID,100,VALID,-0.0849042,VALID,18.451,VALID,139,VALID,0.828526,
2005-10-05, 00:27:01,VALID,919.141,VALID,0,VALID,100,VALID,-0.101885,VALID,18.448,VALID,137,VALID,0.855569,
2005-10-05, 00:28:00,VALID,919.127,VALID,0,VALID,100,VALID,-0.0849042,VALID,18.4512,VALID,133,VALID,0.883765,
2005-10-05, 00:29:00,VALID,919.115,VALID,0,VALID,100,VALID,-0.101885,VALID,18.4579,VALID,140,VALID,1.13398,
2005-10-05, 00:30:01,VALID,919.121,VALID,0,VALID,100,VALID,-0.0849042,VALID,18.4577,VALID,125,VALID,0.960938,
2005-10-05, 00:31:01,VALID,919.107,VALID,0,VALID,100,VALID,-0.0679233,VALID,18.4641,VALID,101,VALID,0.754246,
2005-10-05, 00:32:00,VALID,919.09,VALID,0,VALID,100,VALID,-0.0339617,VALID,18.4579,VALID,124,VALID,0.74349,
2005-10-05, 00:33:00,VALID,919.086,VALID,0,VALID,100,VALID,-0.0849042,VALID,18.4574,VALID,119,VALID,0.418064,
2005-10-05, 00:34:00,VALID,919.069,VALID,0,VALID,100,VALID,-0.0849042,VALID,18.4643,VALID,129,VALID,0.849085,
2005-10-05, 00:35:01,VALID,919.072,VALID,0,VALID,100,VALID,-0.0509425,VALID,18.4646,VALID,141,VALID,1.07564,
2005-10-05, 00:36:00,VALID,919.043,VALID,0,VALID,100,VALID,-0.0849042,VALID,18.4609,VALID,139,VALID,1.07475,
2005-10-05, 00:37:01,VALID,919.026,VALID,0,VALID,100,VALID,-0.0849042,VALID,18.4706,VALID,144,VALID,0.901989,
2005-10-05, 00:38:00,VALID,919,VALID,0,VALID,99.972,VALID,-0.101885,VALID,18.4775,VALID,136,VALID,0.77907,
2005-10-05, 00:39:00,VALID,918.994,VALID,0,VALID,99.9456,VALID,-0.0849042,VALID,18.4867,VALID,142,VALID,0.498666,
2005-10-05, 00:40:01,VALID,918.966,VALID,0,VALID,99.9201,VALID,-0.0849042,VALID,18.4803,VALID,147,VALID,0.795873,
2005-10-05, 00:41:00,VALID,918.938,VALID,0,VALID,99.8833,VALID,-0.0679233,VALID,18.4897,VALID,140,VALID,0.858803,
2005-10-05, 00:42:00,VALID,918.928,VALID,0,VALID,99.8922,VALID,-0.0849042,VALID,18.4899,VALID,130,VALID,0.730283,
2005-10-05, 00:43:01,VALID,918.923,VALID,0,VALID,99.8973,VALID,-0.0849042,VALID,18.4869,VALID,131,VALID,0.828303,
2005-10-05, 00:44:00,VALID,918.906,VALID,0,VALID,99.9606,VALID,-0.0849042,VALID,18.4929,VALID,122,VALID,0.655729,
2005-10-05, 00:45:00,VALID,918.9,VALID,0,VALID,100,VALID,-0.101885,VALID,18.4805,VALID,128,VALID,0.689406,
2005-10-05, 00:46:00,VALID,918.903,VALID,0,VALID,99.999,VALID,-0.0849042,VALID,18.4906,VALID,121,VALID,0.483994,
2005-10-05, 00:47:00,VALID,918.906,VALID,0,VALID,100,VALID,-0.0169808,VALID,18.4664,VALID,121,VALID,0.347842,
2005-10-05, 00:48:00,VALID,918.907,VALID,0,VALID,100,VALID,0.0339617,VALID,18.4627,VALID,121,VALID,0.00763081,
2005-10-05, 00:49:00,VALID,918.901,VALID,0,VALID,100,VALID,0.0169808,VALID,18.4461,VALID,121,VALID,0,
2005-10-05, 00:50:00,VALID,918.897,VALID,0,VALID,100,VALID,0,VALID,18.4436,VALID,121,VALID,0.0375,
2005-10-05, 00:51:00,VALID,918.891,VALID,0,VALID,100,VALID,0.0169808,VALID,18.4403,VALID,121,VALID,0.396151,
2005-10-05, 00:52:00,VALID,918.882,VALID,0,VALID,100,VALID,0.0509425,VALID,18.4341,VALID,76,VALID,0.658067,
2005-10-05, 00:53:00,VALID,918.868,VALID,0,VALID,100,VALID,0.0169808,VALID,18.3984,VALID,51,VALID,0.691592,
2005-10-05, 00:54:00,VALID,918.87,VALID,0,VALID,100,VALID,0.0339617,VALID,18.3656,VALID,47,VALID,0.870536,
2005-10-05, 00:55:01,VALID,918.859,VALID,0,VALID,100,VALID,0.0339617,VALID,18.3601,VALID,42,VALID,0.825149,
2005-10-05, 00:56:00,VALID,918.84,VALID,0,VALID,100,VALID,0,VALID,18.3407,VALID,42,VALID,0.693555,
2005-10-05, 00:57:00,VALID,918.846,VALID,0,VALID,100,VALID,0,VALID,18.3177,VALID,42,VALID,0.429506,
2005-10-05, 00:58:01,VALID,918.824,VALID,0,VALID,100,VALID,0.0509425,VALID,18.3077,VALID,42,VALID,0.220567,
2005-10-05, 00:59:00,VALID,918.826,VALID,0,VALID,100,VALID,0,VALID,18.3114,VALID,42,VALID,0.273996,
2005-10-05, 01:00:01,VALID,918.802,VALID,0,VALID,100,VALID,0.0169808,VALID,18.3077,VALID,42,VALID,0.384084,
2005-10-05, 01:01:00,VALID,918.805,VALID,0,VALID,100,VALID,0.0169808,VALID,18.3207,VALID,42,VALID,0.163021,
2005-10-05, 01:02:00,VALID,918.776,VALID,0,VALID,100,VALID,0,VALID,18.3045,VALID,42,VALID,0.323171,
2005-10-05, 01:03:00,VALID,918.759,VALID,0,VALID,100,VALID,0,VALID,18.3082,VALID,42,VALID,0.163504,
2005-10-05, 01:04:00,VALID,918.729,VALID,0,VALID,100,VALID,0,VALID,18.3241,VALID,42,VALID,0.0310595,
2005-10-05, 01:05:00,VALID,918.73,VALID,0,VALID,100,VALID,0,VALID,18.3338,VALID,42,VALID,0.047247,
2005-10-05, 01:06:00,VALID,918.698,VALID,0,VALID,100,VALID,0,VALID,18.3437,VALID,42,VALID,0,
2005-10-05, 01:07:01,VALID,918.693,VALID,0,VALID,100,VALID,0,VALID,18.3472,VALID,42,VALID,0.350291,
2005-10-05, 01:08:00,VALID,918.687,VALID,0,VALID,100,VALID,-0.0169808,VALID,18.347,VALID,42,VALID,0.513889,
2005-10-05, 01:09:00,VALID,918.697,VALID,0,VALID,100,VALID,0,VALID,18.3174,VALID,42,VALID,0.454823,
2005-10-05, 01:10:00,VALID,918.689,VALID,0,VALID,100,VALID,0,VALID,18.3112,VALID,42,VALID,0.332127,
2005-10-05, 01:11:01,VALID,918.697,VALID,0,VALID,100,VALID,0,VALID,18.3112,VALID,42,VALID,0.212652,
2005-10-05, 01:12:00,VALID,918.685,VALID,0,VALID,100,VALID,0,VALID,18.3151,VALID,42,VALID,0.160714,
2005-10-05, 01:13:01,VALID,918.683,VALID,0,VALID,100,VALID,0,VALID,18.3117,VALID,42,VALID,0.169643,
2005-10-05, 01:14:01,VALID,918.682,VALID,0,VALID,100,VALID,0,VALID,18.2921,VALID,42,VALID,0.143895,
2005-10-05, 01:15:00,VALID,918.68,VALID,0,VALID,100,VALID,0,VALID,18.2888,VALID,42,VALID,0.00797526,
2005-10-05, 01:16:01,VALID,918.679,VALID,0,VALID,100,VALID,0,VALID,18.2759,VALID,42,VALID,0,
2005-10-05, 01:17:00,VALID,918.668,VALID,0,VALID,100,VALID,0,VALID,18.2662,VALID,42,VALID,0.00106534,
2005-10-05, 01:18:00,VALID,918.669,VALID,0,VALID,100,VALID,0,VALID,18.2598,VALID,42,VALID,0.0409226,
2005-10-05, 01:19:01,VALID,918.661,VALID,0.2,VALID,100,VALID,-0.0169808,VALID,18.2469,VALID,42,VALID,0,
2005-10-05, 01:20:01,VALID,918.656,VALID,0,VALID,100,VALID,0,VALID,18.2337,VALID,42,VALID,0,
2005-10-05, 01:21:00,VALID,918.636,VALID,0,VALID,100,VALID,-0.0169808,VALID,18.2372,VALID,42,VALID,0.0888672,
2005-10-05, 01:22:00,VALID,918.635,VALID,0,VALID,100,VALID,0,VALID,18.2305,VALID,42,VALID,0.213867,
2005-10-05, 01:23:00,VALID,918.62,VALID,0,VALID,100,VALID,0,VALID,18.2374,VALID,42,VALID,0.328316,
2005-10-05, 01:24:00,VALID,918.616,VALID,0,VALID,100,VALID,0,VALID,18.2342,VALID,39,VALID,0.343564,
2005-10-05, 01:25:00,VALID,918.619,VALID,0,VALID,100,VALID,-0.0169808,VALID,18.2208,VALID,37,VALID,0.369727,
2005-10-05, 01:26:00,VALID,918.604,VALID,0,VALID,100,VALID,-0.0169808,VALID,18.2109,VALID,37,VALID,0.241815,
2005-10-05, 01:27:00,VALID,918.593,VALID,0,VALID,100,VALID,0,VALID,18.2148,VALID,37,VALID,0.24256,
2005-10-05, 01:28:00,VALID,918.58,VALID,0,VALID,100,VALID,0,VALID,18.1918,VALID,37,VALID,0.447115,
2005-10-05, 01:29:00,VALID,918.556,VALID,0,VALID,100,VALID,0,VALID,18.1786,VALID,37,VALID,0.465588,
2005-10-05, 01:30:00,VALID,918.539,VALID,0,VALID,100,VALID,0.0169808,VALID,18.1595,VALID,37,VALID,0.43022,
2005-10-05, 01:31:01,VALID,918.526,VALID,0,VALID,100,VALID,0,VALID,18.1532,VALID,28,VALID,0.702009,
2005-10-05, 01:32:01,VALID,918.5,VALID,0,VALID,100,VALID,0,VALID,18.1401,VALID,16,VALID,0.57049,
2005-10-05, 01:33:01,VALID,918.482,VALID,0,VALID,100,VALID,0,VALID,18.1403,VALID,19,VALID,0.74721,
2005-10-05, 01:34:01,VALID,918.462,VALID,0,VALID,100,VALID,0.0169808,VALID,18.147,VALID,19,VALID,0.533381,
2005-10-05, 01:35:01,VALID,918.445,VALID,0,VALID,100,VALID,0,VALID,18.1309,VALID,23,VALID,0.709918,
2005-10-05, 01:36:01,VALID,918.42,VALID,0,VALID,100,VALID,0,VALID,18.1244,VALID,19,VALID,0.639509,
2005-10-05, 01:37:00,VALID,918.39,VALID,0,VALID,100,VALID,0.0169808,VALID,18.1175,VALID,14,VALID,0.771949,
2005-10-05, 01:38:01,VALID,918.374,VALID,0,VALID,100,VALID,0,VALID,18.1076,VALID,360,VALID,0.881454,
2005-10-05, 01:39:00,VALID,918.353,VALID,0,VALID,100,VALID,0,VALID,18.1016,VALID,359,VALID,0.520774,
2005-10-05, 01:40:00,VALID,918.327,VALID,0,VALID,100,VALID,0,VALID,18.0951,VALID,28,VALID,0.706395,
2005-10-05, 01:41:01,VALID,918.29,VALID,0,VALID,100,VALID,0,VALID,18.082,VALID,35,VALID,0.305398,
2005-10-05, 01:42:00,VALID,918.265,VALID,0,VALID,100,VALID,0,VALID,18.0855,VALID,31,VALID,0.634673,
2005-10-05, 01:43:01,VALID,918.235,VALID,0,VALID,100,VALID,0,VALID,18.0656,VALID,38,VALID,0.865513,
2005-10-05, 01:44:00,VALID,918.217,VALID,0,VALID,100,VALID,0.0509425,VALID,18.0659,VALID,37,VALID,0.798478,
2005-10-05, 01:45:01,VALID,918.196,VALID,0,VALID,100,VALID,0,VALID,18.0559,VALID,40,VALID,0.669876,
2005-10-05, 01:46:01,VALID,918.181,VALID,0,VALID,100,VALID,0,VALID,18.0594,VALID,53,VALID,0.731831,
2005-10-05, 01:47:01,VALID,918.162,VALID,0,VALID,100,VALID,0,VALID,18.0656,VALID,53,VALID,0.838299,
2005-10-05, 01:48:01,VALID,918.15,VALID,0,VALID,100,VALID,0,VALID,18.0661,VALID,45,VALID,0.74349,
2005-10-05, 01:49:01,VALID,918.13,VALID,0,VALID,100,VALID,0,VALID,18.0691,VALID,45,VALID,0.565848,
2005-10-05, 01:50:00,VALID,918.121,VALID,0,VALID,100,VALID,-0.0169808,VALID,18.0624,VALID,45,VALID,0.400112,
2005-10-05, 01:51:00,VALID,918.105,VALID,0,VALID,100,VALID,0,VALID,18.0592,VALID,45,VALID,0.344727,
2005-10-05, 01:52:00,VALID,918.097,VALID,0,VALID,100,VALID,0.0169808,VALID,18.0659,VALID,44,VALID,0.351376,
2005-10-05, 01:53:00,VALID,918.082,VALID,0,VALID,100,VALID,0.0169808,VALID,18.0698,VALID,43,VALID,0.155633,
2005-10-05, 01:54:01,VALID,918.069,VALID,0,VALID,100,VALID,0.0169808,VALID,18.0691,VALID,43,VALID,0.255382,
2005-10-05, 01:55:00,VALID,918.058,VALID,0,VALID,100,VALID,0.0169808,VALID,18.0654,VALID,43,VALID,0.345656,
2005-10-05, 01:56:01,VALID,918.038,VALID,0,VALID,100,VALID,0.0169808,VALID,18.0758,VALID,46,VALID,0.519354,
2005-10-05, 01:57:01,VALID,918.031,VALID,0,VALID,100,VALID,0.0339617,VALID,18.0721,VALID,77,VALID,0.682231,
2005-10-05, 01:58:01,VALID,918.012,VALID,0,VALID,100,VALID,0.0169808,VALID,18.0792,VALID,102,VALID,0.809028,
2005-10-05, 01:59:00,VALID,918.009,VALID,0,VALID,100,VALID,0.0169808,VALID,18.0592,VALID,106,VALID,0.615007,
2005-10-05, 02:00:00,VALID,918.009,VALID,0,VALID,100,VALID,0,VALID,18.0532,VALID,128,VALID,0.649164,
2005-10-05, 02:01:01,VALID,918.004,VALID,0,VALID,100,VALID,0,VALID,18.0532,VALID,131,VALID,0.649009,
2005-10-05, 02:02:01,VALID,917.992,VALID,0,VALID,100,VALID,-0.0849042,VALID,18.0508,VALID,131,VALID,0.731105,
2005-10-05, 02:03:00,VALID,918.001,VALID,0,VALID,100,VALID,-0.101885,VALID,18.061,VALID,131,VALID,0.681641,
2005-10-05, 02:04:01,VALID,917.976,VALID,0,VALID,100,VALID,-0.101885,VALID,18.0679,VALID,130,VALID,0.581321,
2005-10-05, 02:05:01,VALID,917.957,VALID,0,VALID,100,VALID,-0.135847,VALID,18.0478,VALID,130,VALID,0.338224,
2005-10-05, 02:06:01,VALID,917.944,VALID,0,VALID,100,VALID,-0.0849042,VALID,18.0508,VALID,122,VALID,0.385975,
2005-10-05, 02:07:01,VALID,917.937,VALID,0,VALID,100,VALID,-0.101885,VALID,18.0418,VALID,104,VALID,0.59707,
2005-10-05, 02:08:00,VALID,917.917,VALID,0,VALID,100,VALID,-0.101885,VALID,18.0257,VALID,97,VALID,0.46503,
2005-10-05, 02:09:01,VALID,917.903,VALID,0,VALID,100,VALID,-0.101885,VALID,18.022,VALID,92,VALID,0.571354,
2005-10-05, 02:10:01,VALID,917.878,VALID,0,VALID,100,VALID,-0.118866,VALID,18.0257,VALID,102,VALID,0.594322,
2005-10-05, 02:11:01,VALID,917.861,VALID,0,VALID,100,VALID,-0.101885,VALID,18.019,VALID,103,VALID,0.568638,
2005-10-05, 02:12:01,VALID,917.849,VALID,0,VALID,100,VALID,-0.0679233,VALID,18.0123,VALID,103,VALID,0.394985,
2005-10-05, 02:13:01,VALID,917.837,VALID,0,VALID,100,VALID,-0.101885,VALID,18.0059,VALID,103,VALID,0.330729,
2005-10-05, 02:14:00,VALID,917.834,VALID,0,VALID,100,VALID,-0.101885,VALID,18.0098,VALID,103,VALID,0.475632,
2005-10-05, 02:15:00,VALID,917.83,VALID,0,VALID,100,VALID,-0.101885,VALID,18.0063,VALID,112,VALID,0.665698,
2005-10-05, 02:16:01,VALID,917.816,VALID,0,VALID,100,VALID,-0.101885,VALID,18.0059,VALID,127,VALID,0.707617,
2005-10-05, 02:17:01,VALID,917.79,VALID,0,VALID,100,VALID,-0.0169808,VALID,18.0052,VALID,126,VALID,0.600038,
2005-10-05, 02:18:01,VALID,917.772,VALID,0,VALID,100,VALID,-0.0339617,VALID,18.0017,VALID,132,VALID,0.731889,
2005-10-05, 02:19:01,VALID,917.766,VALID,0,VALID,100,VALID,-0.0169808,VALID,17.9953,VALID,123,VALID,0.762355,
2005-10-05, 02:20:01,VALID,917.763,VALID,0,VALID,100,VALID,0,VALID,17.9921,VALID,126,VALID,0.674414,
2005-10-05, 02:21:01,VALID,917.749,VALID,0,VALID,100,VALID,0,VALID,17.9987,VALID,108,VALID,0.829687,
2005-10-05, 02:22:01,VALID,917.746,VALID,0,VALID,100,VALID,0,VALID,17.9951,VALID,112,VALID,0.771019,
2005-10-05, 02:23:01,VALID,917.747,VALID,0,VALID,100,VALID,0.0339617,VALID,17.9948,VALID,102,VALID,0.610577,
2005-10-05, 02:24:01,VALID,917.761,VALID,0,VALID,100,VALID,-0.0169808,VALID,17.9983,VALID,120,VALID,0.599746,
2005-10-05, 02:25:01,VALID,917.755,VALID,0,VALID,100,VALID,-0.0169808,VALID,18.0054,VALID,123,VALID,0.0964753,
2005-10-05, 02:26:01,VALID,917.756,VALID,0,VALID,100,VALID,0,VALID,18.0017,VALID,128,VALID,0.507607,
2005-10-05, 02:27:01,VALID,917.739,VALID,0,VALID,100,VALID,-0.0339617,VALID,18.0082,VALID,134,VALID,0.670833,
2005-10-05, 02:28:01,VALID,917.719,VALID,0,VALID,100,VALID,0,VALID,18.005,VALID,139,VALID,0.808416,
2005-10-05, 02:29:01,VALID,917.725,VALID,0,VALID,100,VALID,0,VALID,18.0211,VALID,133,VALID,0.442769,
2005-10-05, 02:30:01,VALID,917.718,VALID,0,VALID,100,VALID,-0.0169808,VALID,18.0213,VALID,134,VALID,0.681818,
2005-10-05, 02:31:01,VALID,917.716,VALID,0,VALID,100,VALID,0.0169808,VALID,18.0117,VALID,139,VALID,0.770198,
2005-10-05, 02:32:01,VALID,917.717,VALID,0,VALID,100,VALID,0,VALID,18.0144,VALID,145,VALID,0.630087,
2005-10-05, 02:33:01,VALID,917.713,VALID,0,VALID,100,VALID,-0.0169808,VALID,18.0077,VALID,141,VALID,0.499809,
2005-10-05, 02:34:01,VALID,917.697,VALID,0,VALID,100,VALID,0,VALID,18.0077,VALID,126,VALID,0.399182,
2005-10-05, 02:35:01,VALID,917.68,VALID,0,VALID,100,VALID,0,VALID,18.0045,VALID,121,VALID,0.689236,
2005-10-05, 02:36:01,VALID,917.667,VALID,0,VALID,100,VALID,0,VALID,18.005,VALID,121,VALID,0.226997,
2005-10-05, 02:37:00,VALID,917.642,VALID,0,VALID,100,VALID,-0.0339617,VALID,17.9923,VALID,129,VALID,0.729102,
2005-10-05, 02:38:00,VALID,917.606,VALID,0,VALID,100,VALID,0,VALID,17.9987,VALID,147,VALID,0.734756,
2005-10-05, 02:39:00,VALID,917.578,VALID,0,VALID,100,VALID,-0.0169808,VALID,18.002,VALID,148,VALID,0.608665,
2005-10-05, 02:40:00,VALID,917.56,VALID,0,VALID,100,VALID,0,VALID,18.0015,VALID,141,VALID,0.535065,
2005-10-05, 02:41:00,VALID,917.565,VALID,0,VALID,100,VALID,0,VALID,17.9951,VALID,143,VALID,0.556548,
2005-10-05, 02:42:00,VALID,917.565,VALID,0,VALID,100,VALID,-0.0169808,VALID,17.9951,VALID,141,VALID,0.138393,
2005-10-05, 02:43:00,VALID,917.572,VALID,0,VALID,100,VALID,-0.0169808,VALID,17.9891,VALID,141,VALID,0.244549,
2005-10-05, 02:44:00,VALID,917.555,VALID,0,VALID,100,VALID,-0.0169808,VALID,17.9893,VALID,131,VALID,0.479048,
2005-10-05, 02:45:00,VALID,917.559,VALID,0,VALID,100,VALID,-0.0169808,VALID,17.9759,VALID,127,VALID,0.489236,
2005-10-05, 02:46:00,VALID,917.561,VALID,0,VALID,100,VALID,-0.0169808,VALID,17.9626,VALID,126,VALID,0.337271,
2005-10-05, 02:47:00,VALID,917.564,VALID,0,VALID,100,VALID,-0.0169808,VALID,17.9727,VALID,124,VALID,0.200639,
2005-10-05, 02:48:00,VALID,917.551,VALID,0,VALID,100,VALID,-0.0169808,VALID,17.9658,VALID,124,VALID,0.330556,
2005-10-05, 02:49:00,VALID,917.532,VALID,0,VALID,100,VALID,0,VALID,17.9759,VALID,124,VALID,0.392485,
2005-10-05, 02:50:00,VALID,917.526,VALID,0,VALID,100,VALID,-0.0509425,VALID,17.9861,VALID,124,VALID,0.42569,
2005-10-05, 02:51:00,VALID,917.5,VALID,0,VALID,100,VALID,-0.0679233,VALID,17.9955,VALID,123,VALID,0.189931,
2005-10-05, 02:52:00,VALID,917.479,VALID,0,VALID,100,VALID,-0.0339617,VALID,17.9955,VALID,122,VALID,0.381722,
2005-10-05, 02:53:00,VALID,917.452,VALID,0,VALID,100,VALID,0,VALID,17.9921,VALID,122,VALID,0.67152,
2005-10-05, 02:54:00,VALID,917.443,VALID,0,VALID,100,VALID,0,VALID,17.9821,VALID,126,VALID,0.764258,
2005-10-05, 02:55:00,VALID,917.43,VALID,0,VALID,100,VALID,0,VALID,17.9794,VALID,126,VALID,0.554861,
2005-10-05, 02:56:00,VALID,917.411,VALID,0,VALID,100,VALID,-0.0169808,VALID,17.9761,VALID,126,VALID,0.622713,
2005-10-05, 02:57:00,VALID,917.407,VALID,0,VALID,100,VALID,0,VALID,17.9826,VALID,135,VALID,0.775152,
2005-10-05, 02:58:00,VALID,917.379,VALID,0,VALID,100,VALID,-0.0339617,VALID,17.9957,VALID,140,VALID,0.867746,
2005-10-05, 02:59:00,VALID,917.366,VALID,0,VALID,100,VALID,-0.0339617,VALID,17.9817,VALID,133,VALID,0.720958,
2005-10-05, 03:00:00,VALID,917.359,VALID,0,VALID,100,VALID,0,VALID,17.9955,VALID,152,VALID,0.78869,
2005-10-05, 03:01:00,VALID,917.36,VALID,0,VALID,100,VALID,-0.0169808,VALID,18.0082,VALID,150,VALID,0.752287,
2005-10-05, 03:02:00,VALID,917.359,VALID,0,VALID,100,VALID,-0.101885,VALID,18.0022,VALID,152,VALID,0.593936,
2005-10-05, 03:03:00,VALID,917.346,VALID,0,VALID,100,VALID,-0.0849042,VALID,18.0089,VALID,130,VALID,0.810785,
2005-10-05, 03:04:00,VALID,917.348,VALID,0,VALID,100,VALID,-0.101885,VALID,18.0156,VALID,129,VALID,0.79415,
2005-10-05, 03:05:00,VALID,917.347,VALID,0,VALID,100,VALID,-0.0169808,VALID,18.0354,VALID,132,VALID,0.843192,
2005-10-05, 03:06:00,VALID,917.346,VALID,0,VALID,100,VALID,-0.0679233,VALID,18.0257,VALID,135,VALID,0.914993,
2005-10-05, 03:07:00,VALID,917.345,VALID,0,VALID,100,VALID,-0.101885,VALID,18.0356,VALID,129,VALID,1.03582,
2005-10-05, 03:08:00,VALID,917.33,VALID,0,VALID,100,VALID,-0.101885,VALID,18.0324,VALID,120,VALID,0.802819,
2005-10-05, 03:09:00,VALID,917.329,VALID,0,VALID,100,VALID,-0.0849042,VALID,18.019,VALID,123,VALID,0.542969,
2005-10-05, 03:10:00,VALID,917.329,VALID,0,VALID,100,VALID,-0.0849042,VALID,18.0222,VALID,133,VALID,0.771205,
2005-10-05, 03:11:00,VALID,917.318,VALID,0,VALID,100,VALID,-0.101885,VALID,18.0229,VALID,137,VALID,0.997582,
2005-10-05, 03:12:00,VALID,917.322,VALID,0,VALID,100,VALID,-0.101885,VALID,18.0192,VALID,141,VALID,0.900254,
2005-10-05, 03:13:00,VALID,917.325,VALID,0,VALID,100,VALID,-0.101885,VALID,18.0126,VALID,131,VALID,1.02829,
2005-10-05, 03:14:00,VALID,917.308,VALID,0,VALID,100,VALID,-0.101885,VALID,18.0063,VALID,124,VALID,0.817361,
2005-10-05, 03:15:00,VALID,917.307,VALID,0,VALID,100,VALID,-0.0849042,VALID,17.993,VALID,107,VALID,0.724564,
2005-10-05, 03:16:00,VALID,917.303,VALID,0,VALID,100,VALID,-0.101885,VALID,17.9964,VALID,107,VALID,0.317894,
2005-10-05, 03:17:00,VALID,917.302,VALID,0,VALID,100,VALID,0,VALID,17.9858,VALID,82,VALID,0.552507,
2005-10-05, 03:18:00,VALID,917.291,VALID,0,VALID,100,VALID,0,VALID,17.969,VALID,113,VALID,0.637195,
2005-10-05, 03:19:00,VALID,917.295,VALID,0,VALID,100,VALID,0,VALID,17.9662,VALID,108,VALID,0.887074,
2005-10-05, 03:20:00,VALID,917.289,VALID,0,VALID,100,VALID,0.0339617,VALID,17.966,VALID,115,VALID,0.871003,
2005-10-05, 03:21:00,VALID,917.286,VALID,0,VALID,100,VALID,0.0169808,VALID,17.9559,VALID,112,VALID,0.816497,
2005-10-05, 03:22:00,VALID,917.287,VALID,0,VALID,100,VALID,0.0169808,VALID,17.963,VALID,125,VALID,0.872024,
2005-10-05, 03:23:00,VALID,917.296,VALID,0,VALID,100,VALID,0.0169808,VALID,17.9531,VALID,125,VALID,1.09728,
2005-10-05, 03:24:00,VALID,917.29,VALID,0,VALID,100,VALID,0.0339617,VALID,17.9529,VALID,102,VALID,1.01829,
2005-10-05, 03:25:00,VALID,917.294,VALID,0,VALID,100,VALID,0,VALID,17.9533,VALID,113,VALID,1.18217,
2005-10-05, 03:26:00,VALID,917.301,VALID,0,VALID,100,VALID,0,VALID,17.9529,VALID,126,VALID,0.851926,
2005-10-05, 03:27:00,VALID,917.305,VALID,0,VALID,100,VALID,0,VALID,17.9565,VALID,108,VALID,1.40645,
2005-10-05, 03:28:00,VALID,917.288,VALID,0,VALID,100,VALID,0.0339617,VALID,17.9531,VALID,118,VALID,1.30788,
2005-10-05, 03:29:00,VALID,917.303,VALID,0,VALID,100,VALID,0.0169808,VALID,17.9565,VALID,122,VALID,1.02362,
2005-10-05, 03:30:00,VALID,917.309,VALID,0,VALID,100,VALID,0.0169808,VALID,17.9501,VALID,135,VALID,0.787695,
2005-10-05, 03:31:00,VALID,917.311,VALID,0,VALID,100,VALID,0.0169808,VALID,17.9466,VALID,110,VALID,0.692835,
2005-10-05, 03:32:00,VALID,917.303,VALID,0,VALID,100,VALID,0,VALID,17.9565,VALID,110,VALID,0.889881,
2005-10-05, 03:33:00,VALID,917.303,VALID,0,VALID,100,VALID,0.0169808,VALID,17.9561,VALID,115,VALID,0.795759,
2005-10-05, 03:34:00,VALID,917.307,VALID,0,VALID,100,VALID,0,VALID,17.9395,VALID,132,VALID,1.19188,
2005-10-05, 03:35:00,VALID,917.315,VALID,0,VALID,100,VALID,0.0339617,VALID,17.9501,VALID,147,VALID,1.28303,
2005-10-05, 03:36:00,VALID,917.298,VALID,0,VALID,100,VALID,0.0169808,VALID,17.9565,VALID,133,VALID,1.34747,
2005-10-05, 03:37:00,VALID,917.304,VALID,0,VALID,100,VALID,0.0339617,VALID,17.9593,VALID,147,VALID,1.09702,
2005-10-05, 03:38:00,VALID,917.302,VALID,0,VALID,100,VALID,0.0339617,VALID,17.9692,VALID,146,VALID,1.26372,
2005-10-05, 03:39:00,VALID,917.294,VALID,0,VALID,100,VALID,0.0339617,VALID,17.9656,VALID,148,VALID,1.15483,
2005-10-05, 03:40:00,VALID,917.284,VALID,0,VALID,100,VALID,0.0169808,VALID,17.9888,VALID,135,VALID,1.462,
2005-10-05, 03:41:00,VALID,917.286,VALID,0,VALID,100,VALID,0.0339617,VALID,17.9849,VALID,140,VALID,1.33718,
2005-10-05, 03:42:00,VALID,917.292,VALID,0,VALID,100,VALID,0.0339617,VALID,17.9981,VALID,135,VALID,1.01817,
2005-10-05, 03:43:00,VALID,917.294,VALID,0,VALID,100,VALID,0.0339617,VALID,18.0045,VALID,125,VALID,0.712936,
2005-10-05, 03:44:00,VALID,917.297,VALID,0,VALID,100,VALID,0.0169808,VALID,18.0179,VALID,121,VALID,0.946057,